Wind_Speed
20 19 16 13 12 11 11 9 7 9 14 17 15 16 15 13 11 9 6 5 3 4 1 2 4 5 7 9 10 11 13 13 13 13 13 12 12 11 11 11 11 12 10 11 13
19 16 13 12 11 12 11 9 8 11 15 18 16 15 14 12 10 8 6 4 2 1 3 6 8 9 11 12 14 14 15 16 15 13 13 12 11 11 11 11 11 11 12 14 15
14 14 15 14 14 12 10 8 9 12 14 19 18 16 14 12 11 9 6 5 2 3 6 10 12 12 13 13 14 15 15 14 14 12 13 12 11 11 11 11 11 12 15 16 16
20 15 15 17 16 13 10 10 10 13 15 19 19 16 14 12 11 9 6 5 4 6 8 12 13 15 14 13 13 12 12 12 14 14 14 13 10 10 11 13 14 15 15 15 15
20 19 18 16 14 13 11 9 11 13 16 19 17 17 14 13 12 10 8 6 5 7 10 12 13 15 15 14 13 12 12 13 13 13 13 12 10 10 14 15 14 14 13 13 14
23 21 20 17 14 13 9 9 11 14 16 17 17 16 14 15 12 11 8 7 6 8 10 10 12 15 15 14 12 11 11 12 13 12 13 13 13 13 12 14 12 12 12 11 9
22 20 18 16 13 10 9 8 10 14 16 16 17 16 15 17 13 11 10 9 8 9 11 10 12 15 15 14 13 12 12 13 14 13 13 14 14 12 12 13 11 10 9 8 8
21 20 19 14 11 9 6 7 11 13 15 15 16 16 17 17 15 12 11 11 10 11 12 11 13 15 16 13 14 15 14 14 14 14 15 14 14 10 11 10 9 8 8 9 10
21 19 16 14 10 7 7 7 10 12 14 15 17 17 18 18 17 15 12 12 12 13 12 13 14 16 17 15 13 15 15 15 16 15 14 13 13 10 9 9 10 10 10 10 11
19 18 15 13 10 8 7 7 10 10 12 15 18 18 19 18 18 16 15 14 15 15 14 14 15 17 17 16 14 15 16 17 18 15 12 11 12 10 10 10 11 12 12 13 13
17 16 15 13 11 9 8 9 9 9 11 16 19 20 20 20 19 18 17 17 17 17 15 16 17 17 19 17 15 15 16 17 19 17 14 14 12 12 11 12 12 13 13 14 15
19 18 17 15 12 9 9 8 7 10 12 15 18 19 20 21 20 18 19 19 18 17 16 17 18 17 19 19 18 17 17 19 20 18 18 18 15 13 13 14 15 15 15 17 19
19 20 18 15 10 10 9 7 7 10 11 13 17 18 20 21 21 20 19 20 18 19 19 18 19 19 20 20 20 20 20 21 20 21 21 21 18 17 17 17 18 19 19 20 23
20 18 16 12 12 10 8 8 7 8 9 11 13 15 17 18 20 18 19 19 19 20 20 19 20 19 21 22 22 22 24 23 24 23 23 24 20 21 21 20 20 21 22 24 26
16 15 14 13 13 10 11 10 9 9 8 9 10 12 15 17 19 20 20 21 21 20 21 21 21 21 21 23 24 23 26 27 27 27 26 25 28 18 23 21 23 24 25 26 28
15 14 14 15 13 12 13 12 12 12 11 10 10 11 12 14 15 16 17 18 20 20 21 22 21 22 23 22 23 25 27 29 30 30 31 26 32 21 23 25 26 27 27 29 30
17 17 17 16 15 14 13 13 14 14 15 15 14 14 14 15 16 14 15 16 17 18 20 21 22 23 25 26 26 27 29 32 34 34 34 32 37 28 25 28 28 30 31 32 33
18 20 20 19 18 18 17 16 15 14 16 18 19 19 18 18 18 18 18 18 19 20 21 21 21 25 25 26 27 28 31 33 38 38 38 38 41 29 28 31 31 32 33 35 37
20 21 20 20 19 19 19 18 19 20 19 20 21 22 22 23 23 23 22 22 24 25 25 25 23 25 26 27 29 29 31 34 40 41 44 40 40 35 31 35 36 35 37 36 40
20 20 19 21 22 22 21 21 23 25 25 24 24 24 23 24 25 27 25 26 28 30 31 30 31 28 30 31 31 33 35 35 38 45 47 44 42 38 32 37 39 40 40 42 42
22 23 23 24 24 23 23 23 25 26 27 27 27 28 28 29 28 28 26 27 29 31 34 35 34 29 29 31 32 34 35 36 41 43 49 51 46 37 34 34 39 40 45 43 45
24 25 25 26 25 25 25 25 27 26 28 27 27 27 29 31 32 31 30 32 33 34 35 36 38 34 32 32 33 35 37 39 44 44 48 52 54 37 37 34 37 42 43 45 47
28 29 29 29 28 29 28 28 29 28 30 30 30 29 31 32 33 30 31 32 34 36 39 39 41 39 35 35 36 39 40 41 44 47 48 53 52 45 36 34 35 43 45 51 53
33 36 35 35 34 33 34 34 34 33 33 33 32 32 34 35 34 34 33 35 35 37 39 41 41 40 40 39 40 40 42 43 46 49 48 54 52 43 42 40 39 44 50 54 54
36 36 36 37 39 40 40 39 39 40 39 39 39 38 41 41 36 38 41 40 40 39 40 43 44 42 40 41 42 44 45 45 46 46 50 50 53 50 50 48 46 46 49 49 48
37 37 37 38 41 42 42 40 40 42 44 43 44 42 44 45 44 44 45 44 44 44 44 45 47 47 48 45 47 51 51 46 44 45 50 49 52 45 48 49 48 51 51 50 50
21 23 24 28 37 41 42 44 43 43 44 45 45 46 45 46 49 50 49 49 49 48 46 48 48 50 56 52 54 56 48 48 49 50 47 46 49 48 48 48 46 46 49 51 52
Wind_Direction
194 203 201 200 200 192 190 182 206 194 186 180 179 174 166 162 158 157 162 145 126 97 46 333 313 312 310 307 308 308 307 302 299 295 295 289 289 292 291 288 291 293 297 293 295
199 194 190 186 193 196 192 191 207 193 192 186 186 181 174 167 163 161 167 164 167 97 298 298 301 308 301 304 304 303 301 299 295 297 296 297 295 289 288 286 288 291 297 301 304
200 197 192 183 189 195 200 200 211 196 196 193 194 190 183 175 175 171 181 196 238 285 296 303 308 307 305 305 303 300 297 293 290 291 292 289 289 282 283 288 290 299 300 305 308
191 196 204 197 193 196 200 208 208 200 200 201 200 202 194 187 190 190 203 230 251 283 293 300 305 306 306 305 300 295 293 290 285 284 285 284 282 281 287 293 296 298 301 301 298
193 194 192 193 192 201 206 209 212 206 207 207 204 205 196 199 202 199 211 239 271 296 303 298 303 304 302 298 297 295 290 285 277 279 282 282 276 282 291 293 296 298 297 294 293
192 196 196 193 197 204 208 217 220 213 213 209 209 209 203 207 208 208 224 242 269 295 302 289 299 302 305 302 299 290 286 280 277 275 277 275 281 290 292 290 292 291 294 296 299
188 190 191 195 197 203 207 219 227 223 218 211 210 209 208 214 212 215 233 249 273 296 302 286 297 303 306 305 297 288 287 283 277 275 274 281 286 291 287 293 292 294 296 305 308
184 189 192 193 199 205 207 216 226 225 221 217 214 213 216 218 218 224 236 255 277 291 297 284 291 300 303 301 297 291 288 286 281 276 281 282 283 285 285 285 285 287 293 301 305
184 190 193 195 197 203 215 225 231 224 219 216 219 219 220 223 225 230 247 265 279 289 289 283 286 297 301 295 292 289 287 287 285 279 279 279 281 279 278 275 281 286 287 290 297
189 190 193 196 200 212 228 239 245 235 227 221 224 225 226 227 230 238 253 269 279 282 286 284 285 297 299 292 288 283 283 285 287 286 278 273 274 274 275 279 285 284 283 289 292
190 193 199 201 208 218 237 244 246 247 239 233 229 227 230 231 235 242 256 271 276 278 279 279 282 293 294 287 283 280 281 286 286 283 277 270 261 265 273 272 273 276 284 290 291
195 199 202 204 210 219 241 254 258 257 248 241 238 233 233 234 238 245 258 269 274 272 272 273 277 289 292 288 286 280 280 281 276 270 267 262 259 267 272 272 274 279 283 286 288
201 203 205 206 214 228 245 266 265 262 254 249 245 240 239 242 247 251 258 265 268 267 269 270 275 286 291 289 284 280 277 276 271 271 268 264 259 268 272 276 279 280 284 282 285
203 205 210 213 222 232 248 263 278 277 266 258 251 247 247 248 251 253 257 262 262 265 265 265 271 280 287 286 281 280 277 275 271 269 268 266 262 269 274 279 281 283 282 283 284
208 214 221 225 230 237 250 259 272 273 281 275 265 255 255 259 259 261 261 263 263 264 265 265 271 279 285 286 287 283 278 277 274 273 272 272 270 264 278 284 283 285 287 286 286
213 220 226 233 239 245 252 258 264 269 274 272 267 263 262 262 261 263 262 263 264 264 263 263 270 279 281 287 287 284 280 277 276 274 274 272 274 275 277 279 285 287 289 289 288
219 223 226 232 240 246 252 259 263 266 271 272 272 269 267 267 266 269 270 268 267 263 262 263 272 276 281 284 286 288 286 284 280 277 278 273 270 285 279 280 281 285 288 289 291
226 229 232 236 242 247 251 256 264 270 270 272 273 273 273 276 277 275 272 276 275 273 270 269 270 278 282 285 287 287 287 286 284 283 279 274 276 282 276 277 281 283 284 290 291
234 239 243 250 255 258 262 266 268 270 269 269 274 274 274 275 276 276 277 278 277 278 278 277 276 280 283 284 286 287 285 284 285 285 285 283 284 284 279 280 279 281 287 286 288
250 251 254 257 260 264 266 270 271 269 269 268 271 274 275 275 276 276 274 276 278 279 279 279 279 280 283 284 285 285 287 289 288 287 287 289 288 291 288 282 285 288 285 287 287
256 258 258 259 261 263 267 266 268 270 271 271 271 273 273 274 275 276 279 277 278 279 281 283 284 283 284 283 285 287 288 288 285 286 289 292 289 297 295 289 284 284 285 287 288
258 260 260 260 263 263 263 263 265 267 270 270 272 275 276 275 274 275 277 277 278 279 280 283 284 286 285 285 286 285 285 284 285 287 285 289 293 301 303 295 285 280 279 281 283
257 260 261 264 265 265 266 269 269 269 271 273 275 273 274 275 278 279 281 280 281 280 280 281 283 286 285 285 284 283 284 285 284 284 289 289 298 304 303 294 284 277 273 275 280
256 256 258 259 261 263 265 265 267 269 271 274 274 276 275 275 278 280 278 276 275 277 279 280 281 285 287 288 287 287 286 284 285 287 293 289 295 297 297 293 281 277 279 280 284
258 258 259 261 262 262 263 265 267 268 267 269 273 274 274 277 278 279 279 279 279 280 281 282 284 284 286 287 286 286 285 285 289 294 291 294 295 302 300 295 292 286 281 284 287
263 264 264 263 263 264 264 265 265 266 268 269 270 268 272 275 275 273 274 277 278 279 280 281 283 285 283 287 286 284 285 292 294 294 294 298 290 299 295 294 291 290 291 288 284
272 271 273 276 271 270 269 268 265 265 267 271 271 271 271 272 273 274 275 275 276 277 279 280 282 283 283 283 281 280 288 287 289 290 289 290 285 282 280 282 286 285 284 283 282
Height
5874 5877 5877 5878 5880 5881 5881 5880 5882 5883 5883 5885 5886 5887 5888 5888 5888 5889 5892 5892 5892 5890 5891 5891 5890 5888 5887 5886 5885 5884 5883 5881 5880 5878 5877 5876 5874 5873 5871 5870 5868 5867 5867 5866 5864
5875 5874 5874 5876 5879 5881 5880 5879 5881 5881 5883 5885 5887 5887 5888 5888 5890 5889 5892 5891 5890 5889 5891 5890 5889 5887 5886 5884 5883 5882 5880 5879 5878 5876 5875 5873 5872 5870 5869 5867 5866 5865 5864 5863 5862
5871 5874 5875 5875 5877 5878 5879 5879 5881 5881 5882 5884 5886 5887 5887 5887 5890 5890 5891 5890 5890 5889 5889 5889 5888 5886 5885 5882 5881 5879 5878 5877 5875 5874 5873 5871 5869 5867 5866 5866 5865 5864 5862 5860 5859
5871 5873 5875 5875 5875 5876 5876 5878 5879 5880 5880 5884 5885 5886 5887 5887 5890 5890 5891 5891 5889 5889 5888 5888 5887 5884 5882 5880 5879 5878 5876 5875 5873 5872 5871 5869 5868 5866 5865 5864 5863 5861 5860 5858 5856
5868 5871 5872 5872 5872 5875 5876 5876 5878 5879 5880 5883 5883 5885 5885 5887 5888 5888 5889 5890 5889 5888 5887 5886 5886 5884 5882 5879 5876 5875 5874 5873 5871 5870 5869 5868 5866 5864 5863 5861 5860 5858 5856 5855 5853
5866 5868 5870 5870 5871 5873 5873 5874 5876 5878 5879 5881 5882 5884 5885 5887 5888 5887 5889 5888 5887 5887 5885 5884 5884 5882 5879 5877 5874 5873 5871 5870 5869 5868 5867 5865 5864 5862 5861 5858 5857 5855 5853 5852 5850
5863 5866 5868 5869 5870 5871 5872 5873 5875 5877 5878 5878 5880 5882 5884 5886 5886 5886 5888 5887 5886 5885 5883 5882 5881 5880 5878 5876 5873 5871 5870 5868 5867 5866 5864 5863 5861 5859 5857 5856 5854 5852 5851 5849 5848
5861 5865 5867 5868 5869 5871 5870 5871 5874 5875 5876 5876 5878 5879 5882 5883 5883 5883 5884 5884 5884 5882 5881 5880 5879 5877 5875 5873 5871 5869 5868 5866 5865 5863 5861 5860 5858 5856 5855 5854 5852 5851 5849 5847 5846
5859 5863 5865 5866 5868 5869 5870 5870 5872 5872 5873 5873 5875 5877 5879 5881 5881 5881 5881 5882 5881 5880 5878 5877 5876 5874 5873 5871 5869 5867 5865 5863 5862 5861 5859 5857 5856 5855 5853 5852 5850 5848 5847 5845 5844
5859 5861 5864 5866 5866 5867 5869 5869 5871 5869 5870 5870 5873 5876 5877 5877 5878 5878 5879 5879 5878 5877 5876 5875 5874 5872 5870 5868 5866 5864 5862 5860 5858 5858 5856 5855 5854 5853 5851 5850 5848 5847 5845 5843 5841
5859 5860 5863 5864 5865 5866 5867 5868 5869 5868 5867 5870 5871 5871 5873 5874 5874 5874 5875 5875 5875 5874 5872 5871 5871 5869 5867 5865 5862 5860 5859 5858 5855 5854 5853 5851 5851 5850 5848 5847 5846 5844 5842 5840 5838
5857 5859 5861 5863 5864 5863 5865 5865 5864 5866 5866 5867 5867 5867 5869 5869 5871 5870 5872 5872 5871 5870 5868 5868 5867 5866 5864 5862 5859 5857 5855 5854 5853 5851 5849 5848 5848 5846 5846 5845 5843 5841 5839 5836 5834
5856 5859 5861 5861 5860 5863 5863 5862 5862 5863 5864 5864 5865 5865 5867 5867 5868 5867 5867 5867 5866 5865 5864 5864 5863 5861 5860 5857 5855 5854 5852 5850 5849 5847 5845 5844 5844 5843 5842 5841 5839 5837 5835 5832 5830
5855 5855 5857 5857 5860 5861 5860 5862 5861 5861 5862 5863 5862 5862 5863 5862 5863 5863 5862 5863 5862 5861 5860 5860 5858 5857 5856 5853 5851 5850 5848 5846 5844 5842 5841 5839 5840 5838 5837 5836 5835 5833 5831 5828 5825
5852 5853 5854 5857 5858 5858 5860 5860 5859 5860 5861 5862 5860 5859 5859 5860 5860 5859 5858 5858 5857 5857 5857 5857 5855 5853 5852 5849 5847 5846 5843 5842 5840 5838 5837 5835 5832 5837 5832 5832 5829 5827 5825 5823 5820
5850 5851 5853 5856 5856 5857 5858 5858 5859 5860 5859 5858 5857 5856 5856 5855 5855 5854 5854 5853 5852 5852 5852 5851 5851 5849 5847 5845 5842 5840 5838 5836 5834 5832 5831 5831 5826 5833 5828 5826 5823 5820 5819 5816 5814
5847 5848 5851 5852 5853 5854 5855 5855 5857 5855 5857 5856 5855 5854 5853 5852 5851 5851 5850 5849 5848 5847 5846 5846 5846 5845 5843 5841 5838 5835 5833 5830 5828 5826 5825 5824 5819 5825 5824 5819 5817 5814 5811 5809 5806
5844 5847 5847 5848 5849 5850 5851 5852 5852 5853 5852 5851 5851 5851 5851 5850 5849 5848 5848 5846 5845 5843 5843 5842 5843 5840 5838 5836 5833 5831 5828 5825 5818 5818 5817 5816 5812 5820 5818 5814 5810 5806 5804 5801 5797
5842 5844 5845 5845 5845 5846 5847 5848 5848 5848 5848 5847 5847 5847 5847 5846 5845 5845 5844 5843 5841 5839 5839 5837 5837 5835 5832 5829 5827 5825 5822 5819 5812 5810 5805 5808 5807 5810 5811 5807 5802 5799 5797 5793 5789
5837 5838 5839 5839 5840 5841 5842 5843 5842 5842 5843 5843 5842 5842 5842 5841 5841 5839 5839 5838 5836 5834 5831 5831 5829 5830 5827 5824 5821 5817 5816 5814 5809 5800 5796 5797 5797 5800 5804 5800 5796 5792 5787 5783 5779
5831 5832 5834 5834 5835 5836 5837 5837 5837 5837 5837 5837 5837 5836 5836 5835 5834 5834 5834 5832 5830 5828 5825 5823 5822 5825 5821 5818 5815 5812 5809 5806 5800 5797 5788 5783 5786 5793 5793 5792 5787 5784 5777 5772 5767
5827 5828 5829 5829 5831 5831 5832 5831 5832 5831 5831 5830 5830 5829 5828 5828 5827 5826 5827 5824 5823 5820 5818 5816 5812 5815 5815 5812 5809 5805 5802 5798 5790 5789 5783 5778 5769 5786 5783 5780 5775 5770 5764 5759 5753
5821 5822 5823 5824 5825 5825 5825 5825 5825 5826 5824 5824 5823 5822 5822 5821 5819 5820 5819 5818 5815 5813 5809 5808 5804 5803 5805 5805 5802 5797 5794 5790 5784 5779 5777 5769 5766 5770 5771 5767 5762 5754 5749 5743 5740
5813 5814 5816 5816 5816 5817 5817 5817 5818 5818 5817 5815 5816 5816 5814 5813 5812 5811 5811 5808 5805 5803 5801 5797 5797 5795 5793 5793 5791 5789 5786 5782 5776 5771 5770 5761 5758 5765 5760 5754 5749 5743 5737 5732 5731
5803 5805 5806 5806 5807 5807 5808 5809 5809 5808 5808 5807 5807 5806 5804 5804 5804 5801 5799 5799 5796 5795 5792 5789 5786 5786 5786 5783 5779 5776 5772 5770 5768 5766 5758 5756 5750 5750 5744 5739 5736 5729 5723 5722 5719
5795 5796 5796 5796 5796 5796 5796 5798 5798 5797 5797 5799 5797 5796 5794 5793 5791 5790 5788 5788 5786 5785 5781 5780 5776 5774 5774 5772 5767 5763 5762 5763 5759 5755 5747 5746 5740 5738 5731 5725 5720 5713 5711 5707 5703
5786 5787 5787 5788 5787 5787 5787 5787 5786 5786 5785 5784 5785 5785 5785 5783 5780 5778 5777 5776 5775 5773 5773 5769 5766 5762 5758 5759 5752 5752 5757 5752 5750 5746 5736 5731 5725 5722 5716 5712 5708 5702 5695 5693 5689